EW4115 Weather Reports


Display with metric or nautical units.
time (UTC)temp
F
wind
direction
speed
MPH
gust
MPH
rain 1hr
in
rain 24hr
in
rain mn
in
humidity
%
barometer
mb
20260904071519 84 12 3.0 11.0 0.00 0.00 0.00 51 1013.3
20260904070019 84 25 5.0 15.0 0.00 0.00 0.00 50 1013.2
20260904064511 84 324 2.0 10.0 0.00 0.00 0.00 51 1013.0
20260904063007 83 281 4.0 12.0 0.00 0.00 0.00 53 1012.8
20260904061506 82 306 4.0 13.0 0.00 0.00 0.00 54 1012.7
20260904060059 82 293 2.0 12.0 0.00 0.00 0.00 55 1012.8
20260904054554 81 268 4.0 13.0 0.00 0.00 0.00 56 1013.0
20260904053050 81 326 2.0 9.0 0.00 0.00 0.00 56 1012.7
20260904051546 80 83 1.0 4.0 0.00 0.00 0.00 58 1012.5
20260904050040 79 195 1.0 3.0 0.00 0.00 0.00 60 1012.5
20260904044550 77 282 0.0 2.0 0.00 0.00 0.00 63 1012.6
20260904043045 77 282 0.0 2.0 0.00 0.00 0.00 63 1012.6
20260904041529 76 282 0.0 1.0 0.00 0.00 0.00 63 1012.6
20260904040026 76 282 0.0 3.0 0.00 0.00 0.00 62 1012.5
20260904034524 75 280 0.0 4.0 0.00 0.00 0.00 60 1012.4
20260904033024 75 280 0.0 3.0 0.00 0.00 0.00 61 1012.4
20260904031522 75 280 0.0 1.0 0.00 0.00 0.00 60 1012.4
20260904030023 75 280 0.0 1.0 0.00 0.00 0.00 60 1012.3
20260904024519 76 279 0.0 1.0 0.00 0.00 0.00 59 1012.2
20260904023017 76 280 0.0 1.0 0.00 0.00 0.00 58 1012.2
20260904021522 77 281 0.0 1.0 0.00 0.00 0.00 57 1012.2
20260904020013 77 281 0.0 1.0 0.00 0.00 0.00 56 1012.2
20260904014512 77 281 0.0 2.0 0.00 0.00 0.00 55 1012.3
20260904013011 77 281 0.0 2.0 0.00 0.00 0.00 54 1012.3
20260904011510 77 281 0.0 1.0 0.00 0.00 0.00 54 1012.3
20260904010108 78 281 0.0 2.0 0.00 0.00 0.00 54 1012.2
20260904004507 78 281 0.0 1.0 0.00 0.00 0.00 53 1012.1
20260904003006 78 281 0.0 1.0 0.00 0.00 0.00 52 1012.1
20260904001505 78 281 0.0 3.0 0.00 0.00 0.00 52 1012.2
20260904000005 78 280 0.0 3.0 0.00 0.00 0.00 51 1012.2
20260903234508 78 280 0.0 2.0 0.00 0.00 0.00 50 1012.2
20260903233001 78 280 0.0 2.0 0.00 0.00 0.00 49 1012.2
20260903231500 79 280 0.0 4.0 0.00 0.00 0.00 47 1012.2
20260903224559 79 280 0.0 1.0 0.00 0.00 0.00 45 1012.3
20260903223059 78 280 0.0 2.0 0.00 0.00 0.00 45 1012.3
20260903221559 78 280 0.0 1.0 0.00 0.00 0.00 46 1012.3
20260903220119 78 280 0.0 1.0 0.00 0.00 0.00 47 1012.2
20260903214554 79 280 0.0 0.0 0.00 0.00 0.00 45 1012.2
20260903213052 79 280 0.0 0.0 0.00 0.00 0.00 45 1012.2
20260903211555 80 280 0.0 0.0 0.00 0.00 0.00 44 1012.2
20260903210051 80 280 0.0 0.0 0.00 0.00 0.00 44 1012.1
20260903204548 81 280 0.0 1.0 0.00 0.00 0.00 43 1012.1
20260903203048 81 280 0.0 1.0 0.00 0.00 0.00 42 1012.2
20260903201548 81 280 0.0 1.0 0.00 0.00 0.00 41 1012.3
20260903200047 82 280 0.0 1.0 0.00 0.00 0.00 40 1012.3
20260903194546 82 280 0.0 2.0 0.00 0.00 0.00 39 1012.3
20260903193046 82 279 0.0 2.0 0.00 0.00 0.00 40 1012.2
20260903191552 82 279 2.0 6.0 0.00 0.00 0.00 39 1012.2
20260903190044 83 289 0.0 5.0 0.00 0.00 0.00 40 1012.1
20260903184552 83 299 1.0 6.0 0.00 0.00 0.00 40 1012.0
20260903183045 83 323 3.0 9.0 0.00 0.00 0.00 40 1011.7
20260903181544 84 329 2.0 8.0 0.00 0.00 0.00 40 1011.7
20260903180049 84 360 1.0 8.0 0.00 0.00 0.00 40 1011.5
20260903174542 84 341 3.0 10.0 0.00 0.00 0.00 40 1011.4
20260903173041 84 355 4.0 13.0 0.00 0.00 0.00 40 1011.4
20260903171541 84 321 2.0 12.0 0.00 0.00 0.00 41 1011.2
20260903170040 85 350 4.0 15.0 0.00 0.00 0.00 41 1011.1
20260903164539 85 328 5.0 13.0 0.00 0.00 0.00 41 1010.9
20260903163042 85 7 6.0 13.0 0.00 0.00 0.00 41 1010.8
20260903161548 85 44 5.0 16.0 0.00 0.00 0.00 40 1010.6
20260903160039 86 64 4.0 16.0 0.00 0.00 0.00 40 1010.7
20260903154537 87 87 4.0 10.0 0.00 0.00 0.00 39 1010.7
20260903153037 87 5 1.0 9.0 0.00 0.00 0.00 39 1010.5
20260903151536 87 12 3.0 14.0 0.00 0.00 0.00 40 1010.7
20260903150036 87 335 6.0 13.0 0.00 0.00 0.00 40 1010.8
20260903144535 88 283 5.0 15.0 0.00 0.00 0.00 41 1010.9
20260903143100 89 318 4.0 14.0 0.00 0.00 0.00 42 1010.8
20260903141533 89 335 5.0 13.0 0.00 0.00 0.00 38 1010.8
20260903140032 90 335 4.0 12.0 0.00 0.00 0.00 40 1010.7
20260903134532 90 47 3.0 17.0 0.00 0.00 0.00 39 1010.5
20260903133031 90 343 6.0 15.0 0.00 0.00 0.00 38 1010.6
20260903131531 91 328 5.0 14.0 0.00 0.00 0.00 39 1010.8
20260903130028 91 94 4.0 14.0 0.00 0.00 0.00 39 1010.8
20260903124533 91 305 3.0 15.0 0.00 0.00 0.00 40 1011.0
20260903123036 91 312 5.0 15.0 0.00 0.00 0.00 40 1011.1
20260903121532 91 360 4.0 10.0 0.00 0.00 0.00 40 1011.1
20260903120024 91 343 4.0 13.0 0.00 0.00 0.00 40 1011.2
20260903114525 91 355 2.0 10.0 0.00 0.00 0.00 40 1011.4
20260903113037 91 308 2.0 13.0 0.00 0.00 0.00 40 1011.5
20260903111522 91 4 3.0 10.0 0.00 0.00 0.00 40 1011.5
20260903110020 91 28 1.0 10.0 0.00 0.00 0.00 41 1011.5
20260903104519 91 340 7.0 15.0 0.00 0.00 0.00 41 1011.4
20260903103018 91 325 6.0 14.0 0.00 0.00 0.00 41 1011.5
20260903101514 91 322 3.0 11.0 0.00 0.00 0.00 41 1011.5
20260903100019 91 73 4.0 13.0 0.00 0.00 0.00 40 1011.7
20260903094511 91 15 5.0 14.0 0.00 0.00 0.00 41 1011.8
20260903093011 90 55 6.0 10.0 0.00 0.00 0.00 41 1011.9
20260903091516 90 330 5.0 13.0 0.00 0.00 0.00 41 1012.1
20260903090005 90 61 5.0 17.0 0.00 0.00 0.00 42 1012.2
20260903084512 89 116 4.0 14.0 0.00 0.00 0.00 42 1012.2
20260903083002 89 21 5.0 12.0 0.00 0.00 0.00 41 1012.4
20260903081504 89 34 1.0 10.0 0.00 0.00 0.00 42 1012.1
20260903080105 88 21 2.0 12.0 0.00 0.00 0.00 42 1012.1
20260903074555 87 73 3.0 15.0 0.00 0.00 0.00 44 1012.2
20260903073051 85 318 2.0 9.0 0.00 0.00 0.00 48 1012.2